Aérodrome :
LOGIN :

S'inscrire | Disclaimer

   EN    FR    IT 

 










Légende :    VFR   VFR Marginal   IFR   IFR Intensif   IFR Très Intensif
Visi : 
Plafond : 
>= 8 km
>= 3000ft
5 à 8 km
1000 à 3000 ft
1500m à 5 km
500 à 1000 ft
800 à 1500m
200 à 500 ft
< 800m
< 200 ft
Symboles :   Orages  Brouillard  Fortes neiges  Fortes précipitations  Vent > 20 kt
SIGMETs :   Divers  Orages  Givrage  Turbulence  Onde Orograph.  Cendres Volcan.







- Altitude de l'aérodrome : 13 ft
- Code IATA : CAG


LIEE - Cagliari Elmas

DERNIER METAR :
  • 172350Z 33003KT CAVOK 23/20 Q1015

METARs EXPIRÉS :
  • 172320Z 34004KT CAVOK 23/20 Q1015
  • 172250Z 33005KT CAVOK 23/20 Q1015
  • 172220Z 35005KT CAVOK 24/20 Q1015
  • 172150Z 32003KT CAVOK 25/20 Q1015
  • 172120Z 32004KT CAVOK 25/20 Q1015

TAF TAF LIEE
Valide du 18 à 00h jusqu'au 19 à 00h UTC


172300Z 1800/1824 VRB05KT 9999 SCT030
BECMG 1809/1811 15012KT
TEMPO 1812/1816 TSRA
BECMG 1818/1820 VRB05KT
Pas de NOTAMs connus pour ce terrain.



MET'MAP, la Météo Aéronautique d'un coup d'oeil ! - Copyright ORBIFLY Décembre 2007 - Disclaimer

ORBIFLY MET'MAP TEAM :

Programmation & Développement : Alexandra Zaïnal
Conception & Développement : Baudouin d'Aumeries
Co-Programmation & Développement : Marc-Olivier Méhu
Soutien technique & logistique : Manuel Goepfert

Contact : metmap@orbifly.com




SOURCES & CREDITS :

   NOAA